TimeEEST,TemperatureF,Dew PointF,Humidity,Sea Level PressureIn,VisibilityMPH,Wind Direction,Wind SpeedMPH,Gust SpeedMPH,PrecipitationIn,Events,Conditions,WindDirDegrees,DateUTC
12:20 AM,50.0,46.4,87,29.95,6.2,Calm,Calm,-,N/A,,Scattered Clouds,0,2012-10-08 21:20:00
12:50 AM,48.2,46.4,93,29.95,6.2,NNE,3.5,-,N/A,,Scattered Clouds,30,2012-10-08 21:50:00
1:20 AM,48.2,46.4,93,29.95,6.2,NE,2.3,-,N/A,,Scattered Clouds,50,2012-10-08 22:20:00
1:50 AM,50.0,46.4,87,29.95,6.2,NE,1.2,-,N/A,,Scattered Clouds,40,2012-10-08 22:50:00
2:20 AM,48.2,46.4,93,29.95,6.2,Calm,Calm,-,N/A,,Scattered Clouds,0,2012-10-08 23:20:00
2:50 AM,48.2,44.6,87,29.95,6.2,NNE,2.3,-,N/A,,Scattered Clouds,30,2012-10-08 23:50:00
3:20 AM,46.4,44.6,93,29.95,6.2,North,3.5,-,N/A,,Scattered Clouds,10,2012-10-09 00:20:00
3:50 AM,48.2,46.4,93,29.95,6.2,NNE,4.6,-,N/A,,Scattered Clouds,20,2012-10-09 00:50:00
4:20 AM,46.4,44.6,93,29.95,6.2,Calm,Calm,-,N/A,,Scattered Clouds,0,2012-10-09 01:20:00
4:50 AM,46.4,44.6,93,29.95,6.2,Calm,Calm,-,N/A,,Scattered Clouds,0,2012-10-09 01:50:00
5:20 AM,44.6,42.8,93,29.95,6.2,NE,2.3,-,N/A,,Scattered Clouds,40,2012-10-09 02:20:00
5:50 AM,46.4,44.6,93,29.95,6.2,ENE,2.3,-,N/A,,Scattered Clouds,60,2012-10-09 02:50:00
6:20 AM,46.4,44.6,93,29.98,6.2,Calm,Calm,-,N/A,,Scattered Clouds,0,2012-10-09 03:20:00
7:20 AM,48.2,46.4,93,29.98,6.2,Calm,Calm,-,N/A,,Mostly Cloudy,0,2012-10-09 04:20:00
7:50 AM,50.0,48.2,94,29.98,6.2,Variable,1.2,-,N/A,,Mostly Cloudy,0,2012-10-09 04:50:00
8:20 AM,51.8,48.2,88,30.01,6.2,NNE,3.5,-,N/A,,Mostly Cloudy,20,2012-10-09 05:20:00
8:50 AM,55.4,48.2,77,30.01,6.2,NNE,1.2,-,N/A,,Mostly Cloudy,30,2012-10-09 05:50:00
9:00 AM,55,49,73,,12,NNE,1.2,,,,Partly Cloudy,30,2012-10-09 06:00:00
9:20 AM,57.2,50.0,77,30.01,6.2,Calm,Calm,-,N/A,,Mostly Cloudy,0,2012-10-09 06:20:00
9:50 AM,60.8,50.0,68,30.01,6.2,Calm,Calm,-,N/A,,Mostly Cloudy,0,2012-10-09 06:50:00
10:20 AM,62.6,48.2,59,30.01,6.2,Variable,1.2,-,N/A,,Mostly Cloudy,0,2012-10-09 07:20:00
10:50 AM,64.4,48.2,56,30.01,6.2,Calm,Calm,-,N/A,,Mostly Cloudy,0,2012-10-09 07:50:00
11:20 AM,64.4,48.2,56,29.98,6.2,Variable,1.2,-,N/A,,Mostly Cloudy,0,2012-10-09 08:20:00
11:50 AM,64.4,48.2,56,29.98,6.2,Variable,1.2,-,N/A,,Mostly Cloudy,0,2012-10-09 08:50:00
12:20 PM,64.4,46.4,52,29.98,6.2,Calm,Calm,-,N/A,,Mostly Cloudy,0,2012-10-09 09:20:00
12:50 PM,64.4,46.4,52,29.98,6.2,West,4.6,-,N/A,,Mostly Cloudy,270,2012-10-09 09:50:00
1:20 PM,66.2,44.6,46,29.98,6.2,WNW,6.9,-,N/A,,Mostly Cloudy,300,2012-10-09 10:20:00
1:50 PM,64.4,42.8,45,29.98,6.2,NW,6.9,-,N/A,,Mostly Cloudy,310,2012-10-09 10:50:00
2:20 PM,66.2,42.8,43,29.95,6.2,WNW,8.1,-,N/A,,Mostly Cloudy,290,2012-10-09 11:20:00
2:50 PM,64.4,44.6,49,29.98,6.2,WNW,6.9,-,N/A,,Mostly Cloudy,290,2012-10-09 11:50:00
3:00 PM,64,44,36,,12,WNW,5.8,,,,Partly Cloudy,290,2012-10-09 12:00:00
3:20 PM,62.6,46.4,55,29.98,6.2,West,6.9,-,N/A,Rain,Light Rain Showers,260,2012-10-09 12:20:00
3:50 PM,60.8,50.0,68,29.98,6.2,SSW,3.5,-,N/A,,Mostly Cloudy,200,2012-10-09 12:50:00
4:20 PM,59.0,51.8,77,29.98,6.2,South,4.6,-,N/A,,Mostly Cloudy,170,2012-10-09 13:20:00
4:50 PM,59.0,50.0,72,29.98,6.2,SSE,5.8,-,N/A,,Mostly Cloudy,150,2012-10-09 13:50:00
5:20 PM,59.0,50.0,72,29.98,6.2,SSE,4.6,-,N/A,,Mostly Cloudy,150,2012-10-09 14:20:00
5:50 PM,59.0,46.4,63,29.98,6.2,SE,4.6,-,N/A,,Mostly Cloudy,140,2012-10-09 14:50:00
6:20 PM,59.0,46.4,63,29.98,6.2,SE,3.5,-,N/A,Rain,Light Rain Showers,130,2012-10-09 15:20:00
6:50 PM,57.2,46.4,67,29.98,6.2,Calm,Calm,-,N/A,,Mostly Cloudy,0,2012-10-09 15:50:00
7:20 PM,57.2,48.2,72,30.01,6.2,NE,3.5,-,N/A,,Mostly Cloudy,50,2012-10-09 16:20:00
7:50 PM,57.2,48.2,72,30.01,6.2,Variable,1.2,-,N/A,,Mostly Cloudy,0,2012-10-09 16:50:00
8:20 PM,55.4,48.2,77,30.01,6.2,East,4.6,-,N/A,,Mostly Cloudy,100,2012-10-09 17:20:00
8:50 PM,53.6,48.2,82,30.01,6.2,NE,3.5,-,N/A,,Scattered Clouds,50,2012-10-09 17:50:00
9:00 PM,54,49,76,,12,NE,3.5,,,,Partly Cloudy,50,2012-10-09 18:00:00
9:20 PM,51.8,48.2,88,30.01,6.2,Calm,Calm,-,N/A,,Scattered Clouds,0,2012-10-09 18:20:00
9:50 PM,51.8,48.2,88,30.01,6.2,Variable,1.2,-,N/A,,Scattered Clouds,0,2012-10-09 18:50:00
10:20 PM,51.8,48.2,88,30.01,6.2,NE,3.5,-,N/A,,Scattered Clouds,40,2012-10-09 19:20:00
10:50 PM,50.0,48.2,94,30.01,6.2,NE,2.3,-,N/A,,Scattered Clouds,50,2012-10-09 19:50:00
11:20 PM,51.8,48.2,88,30.01,6.2,NE,4.6,-,N/A,,Mostly Cloudy,50,2012-10-09 20:20:00
11:50 PM,51.8,48.2,88,30.01,6.2,NE,3.5,-,N/A,,Mostly Cloudy,50,2012-10-09 20:50:00